Theta_e
320 321 323 324 323 323 322 321 321 321 321 320 320 319 318 317 318 319 319 320 320 321 321 321 323 323 316 304 305 311 320 319 310 309 305 302 298 298 294 295 297 293 294 296 299 298 296
319 319 320 320 322 322 322 321 321 321 321 320 319 319 318 318 318 318 319 319 320 320 320 321 322 323 307 295 313 312 309 309 308 306 303 302 299 300 296 295 294 296 296 295 297 297 297
320 320 319 320 321 323 322 322 322 322 321 320 319 318 318 318 317 318 318 319 320 321 321 320 322 317 302 300 312 309 309 308 308 307 303 304 302 299 299 295 298 297 292 294 295 296 295
317 319 321 321 321 322 322 322 322 322 321 320 319 318 317 317 318 318 319 320 321 321 321 321 322 310 297 311 309 308 308 307 307 307 307 306 304 303 300 299 296 292 290 286 293 296 296
314 316 315 318 320 319 321 322 322 322 321 319 318 317 317 318 318 318 319 320 320 320 320 320 309 302 296 314 307 308 306 305 305 305 304 307 304 299 297 291 288 288 283 286 290 295 295
310 312 313 313 315 317 317 320 320 320 320 320 319 318 318 318 318 319 320 321 319 317 316 315 308 293 298 300 308 307 305 307 303 302 301 300 297 292 291 287 282 285 285 287 286 293 293
309 309 310 310 311 313 314 316 316 317 317 318 319 319 319 319 319 320 317 311 300 299 301 295 296 295 301 305 309 306 305 303 303 299 291 295 290 287 290 290 290 289 288 286 288 294 292
307 309 309 309 309 309 311 312 315 314 314 315 315 317 320 320 320 320 315 306 304 305 299 301 300 300 303 306 300 303 304 298 297 291 294 291 287 293 294 293 292 290 287 286 289 293 290
304 306 307 308 308 308 308 309 310 311 312 312 312 313 314 318 320 317 313 309 313 309 299 303 301 299 299 304 298 300 302 298 294 292 292 289 292 296 295 291 291 289 287 286 288 289 289
302 303 305 306 305 306 307 308 307 308 309 310 311 312 312 315 314 314 310 313 314 310 293 297 299 301 301 300 293 304 303 299 294 292 292 291 295 293 292 291 292 287 291 291 289 286 282
302 302 302 302 304 304 304 305 306 308 307 307 307 308 310 313 313 311 312 315 312 308 276 297 298 305 301 294 296 298 301 298 292 292 292 290 291 290 290 291 292 289 292 290 289 285 283
302 302 302 302 301 302 302 303 304 304 306 306 306 306 310 312 314 314 315 314 309 292 279 292 296 295 294 295 295 297 297 299 297 293 292 290 294 293 292 293 293 294 291 290 287 284 278
304 301 301 302 301 302 302 301 302 303 303 305 307 306 307 309 308 314 315 308 290 284 296 290 291 294 293 291 292 293 291 290 287 285 285 289 290 292 294 290 293 291 286 278 277 276 276
303 303 302 302 302 301 301 302 300 301 302 303 305 306 304 308 312 314 311 295 283 290 291 294 294 293 290 292 291 292 290 287 290 287 285 284 282 290 293 291 288 288 286 279 273 276 278
304 304 304 303 302 301 300 300 301 301 301 303 305 300 301 306 309 313 301 285 286 291 296 293 292 288 288 291 290 289 287 287 290 290 285 283 284 290 291 292 292 287 284 288 282 272 276
304 304 305 305 303 302 301 300 299 300 301 302 295 295 297 307 308 308 295 287 291 297 298 296 289 291 285 288 287 287 288 291 291 293 292 288 283 288 289 292 291 289 291 283 281 272 271
304 304 304 305 303 303 301 301 300 299 302 303 294 287 298 307 305 299 288 290 294 299 299 295 293 291 291 288 288 287 289 291 292 292 293 290 287 284 287 286 286 286 285 286 286 282 275
304 305 305 305 304 303 303 302 301 299 302 300 293 283 298 303 291 292 289 293 295 296 299 297 296 295 294 293 289 288 288 290 295 293 289 291 288 280 284 288 289 287 286 287 280 278 280
303 304 305 304 304 304 304 303 302 301 302 294 287 288 299 302 282 284 288 290 292 291 294 294 293 295 296 294 290 292 292 295 295 292 291 292 285 274 281 285 287 285 287 288 288 283 281
302 303 303 304 304 304 304 304 303 302 302 297 288 280 288 293 289 285 285 287 288 293 291 293 293 295 293 290 294 290 292 295 295 294 297 296 288 282 278 284 288 284 287 290 288 278 281
301 301 302 303 304 304 304 305 304 303 302 295 290 282 286 281 282 286 286 286 285 285 290 291 289 291 291 287 288 288 291 292 293 295 292 293 285 286 287 288 289 289 288 288 288 288 285
300 300 300 301 302 303 304 304 304 304 303 289 286 284 285 283 284 283 284 283 284 286 288 286 286 289 290 287 288 286 290 290 289 290 291 291 280 286 282 287 287 284 285 286 289 289 289
298 299 299 300 300 301 303 304 304 304 301 291 288 292 288 283 284 281 280 283 284 286 288 290 288 287 285 288 291 291 291 291 290 287 288 287 284 281 270 281 282 275 282 285 286 289 289
297 297 298 298 299 300 301 302 303 304 302 290 288 289 285 276 281 281 284 284 284 285 284 286 289 287 289 293 290 287 286 288 289 288 288 284 284 282 267 270 263 279 285 286 287 288 290
297 297 297 297 297 298 299 300 302 303 304 295 292 287 284 280 281 281 282 282 285 286 284 285 287 289 292 287 277 272 271 273 273 281 285 286 280 269 267 260 273 278 280 281 281 281 287
296 296 296 296 297 297 298 299 300 302 303 299 295 292 284 275 279 285 281 282 277 278 278 282 285 289 289 283 278 271 265 268 266 272 279 285 285 277 262 265 264 277 282 288 288 277 286
296 295 296 296 296 296 296 297 298 300 301 300 295 297 291 283 280 285 278 280 283 280 277 275 282 285 286 278 274 267 266 274 267 269 275 276 279 277 275 273 272 281 282 287 272 276 280
295 295 294 294 295 295 296 296 297 299 300 299 296 297 292 285 282 286 287 282 280 280 276 278 282 282 279 275 272 270 266 273 271 274 275 273 271 271 269 272 270 284 283 281 283 283 284
294 294 294 294 294 295 296 296 296 298 299 299 291 297 297 287 282 289 289 291 290 289 282 279 278 274 280 276 271 270 268 268 270 267 279 271 277 273 276 276 283 285 284 287 287 285 284
Wind_Speed
3 3 8 9 9 10 9 8 8 9 7 6 5 5 3 1 3 2 5 4 4 6 7 9 10 10 1 2 2 2 1 2 1 1 3 3 2 2 1 2 5 3 1 4 4 3 1
2 1 5 5 3 10 10 10 9 8 8 7 7 6 5 2 2 2 3 4 6 6 8 9 9 10 1 1 2 5 3 2 2 2 2 2 3 3 1 3 4 2 2 1 4 4 1
8 4 1 2 4 6 10 9 9 9 8 7 7 6 5 3 1 1 3 6 6 7 8 8 9 3 1 4 1 4 3 1 1 1 3 1 1 3 1 3 2 2 3 4 4 5 2
24 25 20 17 6 4 8 10 9 8 8 8 7 6 5 4 2 1 4 6 8 8 8 8 5 1 3 2 2 2 3 2 2 1 2 1 2 4 3 3 3 3 3 1 4 8 3
19 21 23 24 16 17 2 5 6 7 6 7 7 7 6 4 2 2 4 8 9 7 5 6 1 1 2 1 2 1 1 4 3 2 3 1 3 4 2 6 4 2 2 5 3 4 3
16 17 20 21 21 20 19 13 12 8 4 6 7 7 5 4 1 4 8 5 3 4 1 2 2 3 1 3 3 0 2 4 3 3 4 2 4 4 3 5 6 5 3 3 4 5 4
14 13 15 17 17 19 18 17 16 15 11 8 2 5 3 1 2 4 5 3 3 2 1 6 5 3 5 2 2 1 1 2 3 3 4 1 5 6 11 8 5 4 4 1 1 4 4
14 16 15 13 14 13 13 16 15 16 14 11 10 9 0 3 4 5 2 2 1 1 1 7 3 2 2 4 3 3 2 5 4 5 4 6 3 10 5 5 6 3 3 3 2 2 3
8 11 13 14 13 10 12 10 13 13 13 12 11 10 9 4 4 2 2 3 2 2 1 3 4 4 5 6 5 8 8 4 4 5 6 7 5 8 5 2 4 2 4 3 5 1 2
6 6 8 10 10 10 13 11 12 11 11 12 12 11 10 8 2 2 0 2 3 0 2 5 6 5 4 6 2 1 7 4 3 10 7 6 6 4 5 4 5 2 0 4 4 4 3
3 5 5 5 7 9 9 9 12 13 12 11 10 9 10 3 1 4 0 3 3 1 1 1 4 1 2 6 7 1 1 2 7 7 7 7 6 7 4 6 6 6 2 2 2 2 2
4 5 3 3 4 4 5 7 9 12 12 12 12 13 14 2 1 2 2 4 1 5 9 3 4 4 6 2 2 3 3 3 3 2 4 3 1 2 6 2 2 8 6 7 5 3 3
7 5 5 2 0 3 3 4 6 8 10 12 13 13 5 1 1 2 4 3 5 7 4 5 5 6 4 5 4 3 6 6 7 6 5 2 3 2 3 7 7 5 7 2 3 3 8
9 7 6 6 4 1 4 5 2 6 8 11 14 13 4 1 2 0 3 4 4 7 2 2 5 6 6 7 4 6 7 5 5 2 5 7 5 9 6 8 10 7 8 8 8 5 5
11 7 9 7 7 4 2 1 4 5 6 10 14 3 2 1 2 0 4 2 3 4 2 6 4 4 4 4 7 5 7 6 8 9 8 7 6 2 3 4 10 6 7 6 5 2 4
13 12 9 12 9 7 5 4 2 4 6 7 2 3 2 4 3 2 1 4 3 3 4 6 4 6 6 7 5 6 8 5 5 10 4 3 1 4 2 3 3 6 5 3 3 3 5
13 13 9 12 10 8 8 7 4 2 5 5 2 3 3 1 2 2 5 5 5 3 5 5 5 2 2 6 7 7 8 3 2 3 10 5 4 3 2 5 9 3 2 2 4 6 6
12 13 13 14 12 11 10 9 6 3 3 2 1 2 3 2 3 3 5 5 2 7 4 2 2 2 2 4 3 6 5 3 8 1 8 1 5 5 6 3 2 3 6 6 5 3 4
13 13 11 14 15 13 14 13 10 8 4 2 1 2 2 0 5 4 3 4 2 5 6 6 9 7 6 2 1 0 4 1 8 6 3 2 1 3 7 4 3 3 2 3 1 5 12
12 12 12 11 13 13 15 15 14 10 8 3 1 2 2 1 1 2 5 5 8 6 3 3 4 3 4 7 5 2 2 2 3 4 8 6 2 5 7 4 3 3 4 4 2 3 3
12 10 11 12 14 14 13 19 18 14 12 4 1 3 4 5 4 7 1 5 9 6 4 6 2 6 7 5 5 5 4 3 2 6 5 5 6 2 3 2 3 3 6 5 5 7 6
16 13 11 11 12 13 15 16 22 18 15 3 4 2 4 1 5 12 7 5 8 8 8 4 4 8 6 5 5 7 8 6 5 2 3 1 3 2 3 5 5 6 11 10 13 16 15
18 18 15 13 12 11 14 15 21 24 14 3 2 2 1 4 4 6 6 4 3 4 3 7 8 4 1 3 6 4 6 4 7 9 4 5 5 3 4 1 4 6 12 13 8 6 8
18 20 20 19 16 14 13 15 19 26 22 4 3 4 3 4 5 6 2 9 8 3 5 2 6 7 3 9 8 8 10 7 5 4 6 8 5 3 4 5 2 10 4 0 7 7 9
20 19 17 19 21 21 16 14 17 22 27 7 3 5 5 5 3 5 6 3 6 11 3 3 3 2 10 6 5 6 6 7 5 5 6 6 5 1 4 5 6 11 9 6 7 5 2
21 20 18 19 19 19 20 17 15 18 24 11 7 4 4 6 10 6 5 6 5 3 3 1 3 4 6 4 4 6 6 6 4 7 2 4 5 6 2 6 10 10 1 6 6 5 6
22 21 19 19 19 20 19 21 21 20 20 14 5 10 3 5 5 9 5 6 6 4 3 2 2 5 4 3 3 4 5 5 5 8 7 6 5 15 11 8 8 15 6 2 5 9 5
22 21 20 21 21 22 21 22 23 22 20 13 7 16 9 5 4 9 9 7 3 3 6 4 5 0 2 4 5 5 4 6 3 5 8 9 9 6 4 5 12 8 3 8 5 3 6
22 22 22 21 21 22 22 22 21 22 19 16 4 10 12 5 5 6 11 12 10 10 8 0 4 5 5 4 1 3 0 1 5 4 3 2 8 8 11 9 7 3 4 4 6 4 5
Wind_Direction
58 292 218 194 193 173 189 172 168 164 168 185 198 183 158 257 121 95 344 2 356 340 347 351 344 342 341 89 236 173 192 215 266 215 180 152 134 154 180 238 119 129 276 87 134 91 1
126 53 69 64 229 184 179 172 176 171 170 183 206 206 168 191 326 350 342 326 318 334 338 338 339 332 62 233 176 144 147 160 217 222 212 146 129 176 178 76 112 149 65 168 177 162 202
22 160 180 55 257 220 171 171 185 178 174 193 212 208 201 170 176 347 337 319 319 324 320 322 338 341 49 225 195 153 158 112 8 356 191 99 70 96 94 99 184 74 25 328 206 181 177
25 42 63 55 27 173 185 170 181 171 180 195 217 212 197 168 194 301 320 311 308 301 302 302 325 302 218 298 325 180 145 84 336 6 100 85 64 97 98 137 62 108 58 61 299 143 218
31 28 45 44 56 56 146 180 183 169 179 193 193 205 184 174 203 298 308 299 297 290 280 298 341 159 258 345 119 292 58 139 96 41 27 48 74 127 41 107 35 346 208 204 306 183 129
36 39 40 45 32 56 50 49 93 105 133 189 194 194 190 168 223 305 308 284 295 323 279 259 282 61 187 189 127 25 314 155 129 117 65 72 67 88 36 92 190 193 200 283 215 234 152
36 42 57 49 43 32 39 44 67 68 59 63 133 199 170 239 291 340 5 41 40 25 256 192 196 154 130 92 83 258 236 106 104 66 137 185 95 183 207 199 183 148 131 196 220 219 168
32 34 42 62 57 42 36 38 41 56 53 45 44 39 106 310 313 303 105 80 179 149 299 217 139 84 103 171 113 187 126 138 134 174 128 43 209 226 210 212 207 182 178 249 318 172 153
31 41 39 47 70 61 65 41 48 46 44 37 35 31 27 348 295 318 40 120 166 168 118 251 184 173 194 145 199 189 155 167 146 163 164 153 220 199 156 170 146 171 170 221 216 355 289
36 39 52 44 39 42 52 46 53 47 47 28 24 14 8 353 3 186 106 50 48 12 95 232 212 227 134 146 223 260 189 155 170 183 172 210 240 107 157 185 144 220 208 235 257 63 233
61 40 40 44 39 32 30 29 40 37 24 24 15 356 350 255 262 169 340 339 312 62 117 190 131 359 113 171 141 296 244 56 161 189 132 230 184 167 173 201 151 202 160 109 109 146 68
302 322 327 4 25 19 11 19 25 27 16 11 360 353 348 44 290 66 74 354 51 65 236 165 129 159 129 100 53 113 118 60 152 179 80 179 160 157 162 72 168 154 74 38 37 73 295
267 291 284 280 349 7 350 359 20 11 6 359 342 344 341 153 120 316 136 106 155 198 170 190 174 164 154 148 117 132 151 162 154 133 186 140 215 98 119 78 4 98 89 347 341 3 232
273 257 247 254 264 245 347 3 358 1 358 348 334 325 301 224 220 126 113 86 208 189 207 141 123 125 162 141 181 163 128 177 264 139 130 159 264 158 188 179 173 193 159 161 195 204 265
269 268 258 237 248 233 176 342 353 346 356 337 326 314 340 237 154 139 94 140 203 233 310 141 122 120 203 130 130 132 170 190 200 179 165 165 241 111 125 147 148 208 213 178 86 43 47
259 265 267 239 233 233 228 193 264 328 345 322 341 338 280 150 176 133 103 187 251 198 310 198 161 176 168 161 119 151 167 212 202 183 187 190 116 4 360 97 27 144 176 76 360 150 243
266 263 253 225 219 226 214 234 252 315 331 331 23 67 274 134 69 115 218 177 208 260 108 24 12 39 76 169 145 176 190 20 341 169 175 160 126 303 124 201 169 127 194 163 143 153 170
272 267 245 223 238 212 217 222 234 246 316 85 291 135 292 29 141 222 199 173 141 179 149 163 340 1 102 40 148 190 136 42 321 53 137 209 141 170 200 247 157 128 184 161 158 243 224
271 274 256 239 225 229 217 216 220 206 154 102 165 190 339 71 179 193 214 187 179 205 178 182 193 185 77 115 346 296 98 36 30 55 72 338 14 55 355 360 353 159 193 192 171 90 238
273 272 268 252 245 231 228 215 211 208 163 93 21 131 353 346 78 135 169 189 191 197 205 205 194 165 128 172 212 147 110 24 63 101 69 61 60 156 176 113 29 63 11 14 6 164 233
277 273 266 262 258 252 232 214 207 205 174 100 184 240 187 185 246 211 360 200 188 190 200 162 226 195 182 192 193 199 117 120 73 133 56 132 217 227 230 181 115 208 267 267 253 271 258
266 270 266 268 261 258 248 227 205 202 172 97 160 206 344 183 151 174 218 227 196 187 158 212 165 206 204 196 178 203 145 162 167 73 110 101 168 191 286 226 233 242 232 221 230 246 246
264 267 259 261 264 263 251 239 212 200 171 145 170 137 21 282 169 151 219 161 133 173 227 177 191 191 186 247 119 100 79 78 145 136 130 150 133 121 276 138 157 299 235 205 206 212 220
257 261 256 250 253 259 260 250 225 208 196 134 174 122 170 256 195 197 181 191 218 224 204 61 140 142 152 110 73 42 42 50 74 107 126 148 125 129 218 32 304 245 310 17 205 219 227
256 257 261 254 249 248 253 253 244 220 208 197 164 135 160 229 203 247 234 201 217 235 232 176 60 342 144 78 66 47 354 22 310 237 189 146 134 136 159 188 299 305 273 183 166 260 48
251 256 250 246 251 243 245 249 255 248 226 202 192 148 137 130 226 154 198 198 177 170 37 34 332 341 72 93 98 149 194 197 274 334 66 168 159 151 101 170 207 241 214 112 119 274 173
252 245 250 250 252 252 247 243 243 245 247 227 181 189 169 212 225 167 173 181 160 138 137 129 110 19 36 108 130 159 230 187 167 169 166 153 203 217 221 228 275 255 207 143 125 250 208
251 253 249 245 244 244 245 245 240 246 246 236 210 185 191 218 220 194 168 153 85 136 142 185 96 188 57 148 137 201 147 221 130 184 176 160 158 194 194 209 244 227 81 173 196 210 180
249 253 248 246 254 248 246 243 244 240 242 225 261 180 194 198 226 196 206 193 174 173 134 195 161 163 168 116 205 99 117 63 159 225 184 228 185 179 182 202 222 155 145 186 162 176 242